| time (UTC) | temp F | wind direction | speed MPH | gust MPH | rain 1hr in | rain 24hr in | rain mn in | humidity % | barometer mb |
| 20260510033518 | 72 | 45 | 15.0 | 23.0 | 0.00 | 0.00 | 0.00 | 25 | 1019.9 |
| 20260510033007 | 72 | 45 | 15.0 | 21.0 | 0.00 | 0.00 | 0.00 | 25 | 1019.9 |
| 20260510032518 | 72 | 23 | 15.0 | 22.0 | 0.00 | 0.00 | 0.00 | 26 | 1020.1 |
| 20260510032018 | 72 | 45 | 14.0 | 20.0 | 0.00 | 0.00 | 0.00 | 26 | 1020.2 |
| 20260510031519 | 72 | 23 | 14.0 | 19.0 | 0.00 | 0.00 | 0.00 | 26 | 1020.3 |
| 20260510031018 | 71 | 45 | 14.0 | 20.0 | 0.00 | 0.00 | 0.00 | 26 | 1020.4 |
| 20260510030518 | 71 | 45 | 16.0 | 21.0 | 0.00 | 0.00 | 0.00 | 27 | 1020.5 |
| 20260510030026 | 71 | 23 | 17.0 | 24.0 | 0.00 | 0.00 | 0.00 | 27 | 1020.6 |
| 20260510025538 | 71 | 23 | 15.0 | 21.0 | 0.00 | 0.00 | 0.00 | 27 | 1020.8 |
| 20260510025018 | 70 | 23 | 16.0 | 22.0 | 0.00 | 0.00 | 0.00 | 28 | 1020.8 |
| 20260510024538 | 70 | 23 | 15.0 | 21.0 | 0.00 | 0.00 | 0.00 | 28 | 1020.9 |
| 20260510024018 | 70 | 45 | 16.0 | 22.0 | 0.00 | 0.00 | 0.00 | 29 | 1020.9 |
| 20260510023518 | 70 | 45 | 16.0 | 22.0 | 0.00 | 0.00 | 0.00 | 29 | 1020.7 |
| 20260510023010 | 70 | 45 | 15.0 | 21.0 | 0.00 | 0.00 | 0.00 | 29 | 1020.8 |
| 20260510022519 | 69 | 45 | 17.0 | 20.0 | 0.00 | 0.00 | 0.00 | 30 | 1020.9 |
| 20260510022039 | 69 | 45 | 16.0 | 22.0 | 0.00 | 0.00 | 0.00 | 31 | 1020.9 |
| 20260510021517 | 69 | 45 | 17.0 | 21.0 | 0.00 | 0.00 | 0.00 | 31 | 1020.9 |
| 20260510021017 | 69 | 45 | 15.0 | 21.0 | 0.00 | 0.00 | 0.00 | 31 | 1021.1 |
| 20260510020518 | 68 | 45 | 16.0 | 21.0 | 0.00 | 0.00 | 0.00 | 32 | 1021.1 |
| 20260510020008 | 68 | 45 | 15.0 | 22.0 | 0.00 | 0.00 | 0.00 | 33 | 1021.0 |
| 20260510015518 | 66 | 45 | 16.0 | 20.0 | 0.00 | 0.00 | 0.00 | 34 | 1020.9 |
| 20260510015017 | 66 | 45 | 14.0 | 20.0 | 0.00 | 0.00 | 0.00 | 35 | 1020.9 |
| 20260510014518 | 66 | 45 | 17.0 | 23.0 | 0.00 | 0.00 | 0.00 | 36 | 1020.9 |
| 20260510014017 | 65 | 45 | 15.0 | 22.0 | 0.00 | 0.00 | 0.00 | 36 | 1020.8 |
| 20260510013518 | 65 | 45 | 16.0 | 22.0 | 0.00 | 0.00 | 0.00 | 37 | 1020.7 |
| 20260510013007 | 64 | 45 | 17.0 | 23.0 | 0.00 | 0.00 | 0.00 | 37 | 1020.7 |
| 20260510012538 | 64 | 45 | 18.0 | 23.0 | 0.00 | 0.00 | 0.00 | 38 | 1020.7 |
| 20260510012018 | 64 | 45 | 18.0 | 23.0 | 0.00 | 0.00 | 0.00 | 38 | 1020.5 |
| 20260510011517 | 63 | 45 | 19.0 | 25.0 | 0.00 | 0.00 | 0.00 | 38 | 1020.5 |
| 20260510011017 | 63 | 45 | 17.0 | 23.0 | 0.00 | 0.00 | 0.00 | 39 | 1020.9 |
| 20260510010518 | 63 | 45 | 18.0 | 23.0 | 0.00 | 0.00 | 0.00 | 39 | 1020.9 |
| 20260510010006 | 63 | 45 | 16.0 | 23.0 | 0.00 | 0.00 | 0.00 | 40 | 1020.9 |
| 20260510005520 | 62 | 45 | 16.0 | 22.0 | 0.00 | 0.00 | 0.00 | 40 | 1020.7 |
| 20260510005019 | 61 | 45 | 14.0 | 19.0 | 0.00 | 0.00 | 0.00 | 42 | 1020.8 |
| 20260510004517 | 61 | 45 | 14.0 | 20.0 | 0.00 | 0.00 | 0.00 | 42 | 1020.7 |
| 20260510004017 | 60 | 45 | 16.0 | 21.0 | 0.00 | 0.00 | 0.00 | 44 | 1020.6 |
| 20260510003517 | 60 | 68 | 15.0 | 21.0 | 0.00 | 0.00 | 0.00 | 44 | 1020.7 |
| 20260510003007 | 60 | 45 | 14.0 | 20.0 | 0.00 | 0.00 | 0.00 | 44 | 1020.7 |
| 20260510002517 | 59 | 45 | 14.0 | 19.0 | 0.00 | 0.00 | 0.00 | 45 | 1020.8 |
| 20260510002017 | 59 | 45 | 15.0 | 21.0 | 0.00 | 0.00 | 0.00 | 45 | 1020.7 |
| 20260510001538 | 58 | 45 | 14.0 | 19.0 | 0.00 | 0.00 | 0.00 | 46 | 1020.7 |
| 20260510001018 | 58 | 68 | 15.0 | 20.0 | 0.00 | 0.00 | 0.00 | 47 | 1020.6 |
| 20260510000517 | 57 | 68 | 15.0 | 19.0 | 0.00 | 0.00 | 0.00 | 48 | 1020.7 |
| 20260510000007 | 57 | 68 | 16.0 | 22.0 | 0.00 | 0.00 | 0.00 | 48 | 1020.6 |
| 20260509235517 | 56 | 68 | 16.0 | 21.0 | 0.00 | 0.00 | 0.00 | 49 | 1020.5 |
| 20260509235040 | 56 | 68 | 15.0 | 21.0 | 0.00 | 0.00 | 0.00 | 49 | 1020.5 |
| 20260509234538 | 56 | 68 | 14.0 | 19.0 | 0.00 | 0.00 | 0.00 | 50 | 1020.6 |
| 20260509234017 | 55 | 68 | 14.0 | 20.0 | 0.00 | 0.00 | 0.00 | 51 | 1020.5 |
| 20260509233517 | 54 | 68 | 12.0 | 18.0 | 0.00 | 0.00 | 0.00 | 52 | 1020.4 |
| 20260509233006 | 54 | 68 | 11.0 | 14.0 | 0.00 | 0.00 | 0.00 | 53 | 1020.5 |
| 20260509232517 | 53 | 68 | 11.0 | 14.0 | 0.00 | 0.00 | 0.00 | 54 | 1020.5 |
| 20260509232017 | 53 | 68 | 11.0 | 14.0 | 0.00 | 0.00 | 0.00 | 54 | 1020.3 |
| 20260509231558 | 53 | 68 | 11.0 | 14.0 | 0.00 | 0.00 | 0.00 | 54 | 1020.3 |
| 20260509231017 | 52 | 68 | 11.0 | 14.0 | 0.00 | 0.00 | 0.00 | 55 | 1020.1 |
| 20260509230517 | 52 | 68 | 11.0 | 14.0 | 0.00 | 0.00 | 0.00 | 55 | 1020.1 |
| 20260509230008 | 52 | 68 | 12.0 | 14.0 | 0.00 | 0.00 | 0.00 | 55 | 1020.0 |
| 20260509225517 | 52 | 68 | 12.0 | 16.0 | 0.00 | 0.00 | 0.00 | 56 | 1020.0 |
| 20260509225018 | 52 | 68 | 12.0 | 17.0 | 0.00 | 0.00 | 0.00 | 55 | 1019.9 |
| 20260509224538 | 51 | 45 | 12.0 | 15.0 | 0.00 | 0.00 | 0.00 | 56 | 1019.9 |
| 20260509224017 | 51 | 45 | 11.0 | 15.0 | 0.00 | 0.00 | 0.00 | 56 | 1019.9 |
| 20260509223538 | 51 | 45 | 11.0 | 13.0 | 0.00 | 0.00 | 0.00 | 56 | 1020.1 |
| 20260509223007 | 51 | 45 | 10.0 | 12.0 | 0.00 | 0.00 | 0.00 | 55 | 1020.0 |
| 20260509222517 | 52 | 68 | 11.0 | 14.0 | 0.00 | 0.00 | 0.00 | 55 | 1020.1 |
| 20260509222017 | 51 | 68 | 9.0 | 11.0 | 0.00 | 0.00 | 0.00 | 55 | 1020.1 |
| 20260509221517 | 51 | 68 | 10.0 | 12.0 | 0.00 | 0.00 | 0.00 | 55 | 1020.0 |
| 20260509221018 | 52 | 68 | 10.0 | 12.0 | 0.00 | 0.00 | 0.00 | 53 | 1019.9 |
| 20260509220519 | 53 | 45 | 10.0 | 13.0 | 0.00 | 0.00 | 0.00 | 52 | 1019.9 |
| 20260509220006 | 53 | 45 | 9.0 | 12.0 | 0.00 | 0.00 | 0.00 | 52 | 1019.9 |
| 20260509215519 | 53 | 68 | 10.0 | 13.0 | 0.00 | 0.00 | 0.00 | 52 | 1019.9 |
| 20260509215022 | 53 | 68 | 10.0 | 13.0 | 0.00 | 0.00 | 0.00 | 52 | 1019.8 |
| 20260509214519 | 53 | 68 | 11.0 | 14.0 | 0.00 | 0.00 | 0.00 | 52 | 1019.8 |
| 20260509214018 | 53 | 68 | 11.0 | 16.0 | 0.00 | 0.00 | 0.00 | 51 | 1019.7 |
| 20260509213519 | 54 | 68 | 11.0 | 14.0 | 0.00 | 0.00 | 0.00 | 51 | 1019.8 |
| 20260509213008 | 53 | 68 | 10.0 | 13.0 | 0.00 | 0.00 | 0.00 | 51 | 1019.8 |
| 20260509212519 | 54 | 68 | 10.0 | 14.0 | 0.00 | 0.00 | 0.00 | 51 | 1019.8 |
| 20260509212017 | 54 | 68 | 10.0 | 13.0 | 0.00 | 0.00 | 0.00 | 50 | 1019.9 |
| 20260509211520 | 54 | 68 | 12.0 | 15.0 | 0.00 | 0.00 | 0.00 | 50 | 1019.9 |
| 20260509211020 | 54 | 68 | 11.0 | 14.0 | 0.00 | 0.00 | 0.00 | 50 | 1019.8 |
| 20260509210519 | 54 | 68 | 11.0 | 14.0 | 0.00 | 0.00 | 0.00 | 50 | 1019.7 |
| 20260509210006 | 54 | 68 | 11.0 | 15.0 | 0.00 | 0.00 | 0.00 | 50 | 1019.8 |
| 20260509205519 | 54 | 68 | 12.0 | 14.0 | 0.00 | 0.00 | 0.00 | 50 | 1019.9 |
| 20260509205019 | 54 | 68 | 12.0 | 14.0 | 0.00 | 0.00 | 0.00 | 50 | 1019.8 |
| 20260509204519 | 53 | 68 | 11.0 | 15.0 | 0.00 | 0.00 | 0.00 | 51 | 1019.7 |
| 20260509204019 | 53 | 68 | 11.0 | 13.0 | 0.00 | 0.00 | 0.00 | 51 | 1019.8 |
| 20260509203519 | 53 | 45 | 10.0 | 12.0 | 0.00 | 0.00 | 0.00 | 51 | 1019.9 |
| 20260509203007 | 53 | 68 | 10.0 | 12.0 | 0.00 | 0.00 | 0.00 | 50 | 1019.8 |
| 20260509202520 | 54 | 68 | 11.0 | 14.0 | 0.00 | 0.00 | 0.00 | 49 | 1019.8 |
| 20260509202020 | 54 | 68 | 11.0 | 14.0 | 0.00 | 0.00 | 0.00 | 49 | 1019.8 |
| 20260509201519 | 54 | 68 | 11.0 | 16.0 | 0.00 | 0.00 | 0.00 | 48 | 1019.6 |
| 20260509201019 | 55 | 68 | 11.0 | 15.0 | 0.00 | 0.00 | 0.00 | 48 | 1019.7 |
| 20260509200519 | 55 | 68 | 12.0 | 20.0 | 0.00 | 0.00 | 0.00 | 46 | 1019.8 |
| 20260509200009 | 55 | 68 | 11.0 | 15.0 | 0.00 | 0.00 | 0.00 | 46 | 1019.8 |
| 20260509195519 | 56 | 68 | 12.0 | 16.0 | 0.00 | 0.00 | 0.00 | 46 | 1019.7 |
| 20260509195019 | 55 | 68 | 12.0 | 17.0 | 0.00 | 0.00 | 0.00 | 46 | 1019.7 |
| 20260509194520 | 55 | 68 | 12.0 | 17.0 | 0.00 | 0.00 | 0.00 | 46 | 1019.6 |
| 20260509194019 | 56 | 68 | 13.0 | 16.0 | 0.00 | 0.00 | 0.00 | 46 | 1019.6 |
| 20260509193519 | 55 | 68 | 12.0 | 16.0 | 0.00 | 0.00 | 0.00 | 46 | 1019.7 |
| 20260509193007 | 55 | 68 | 11.0 | 15.0 | 0.00 | 0.00 | 0.00 | 46 | 1019.7 |
| 20260509192519 | 55 | 68 | 11.0 | 14.0 | 0.00 | 0.00 | 0.00 | 47 | 1019.7 |
| 20260509192040 | 55 | 68 | 11.0 | 13.0 | 0.00 | 0.00 | 0.00 | 47 | 1019.7 |
| 20260509191521 | 55 | 68 | 11.0 | 14.0 | 0.00 | 0.00 | 0.00 | 47 | 1019.8 |
| 20260509191019 | 54 | 68 | 10.0 | 12.0 | 0.00 | 0.00 | 0.00 | 48 | 1019.8 |
| 20260509190518 | 54 | 68 | 10.0 | 12.0 | 0.00 | 0.00 | 0.00 | 48 | 1019.8 |
| 20260509190007 | 53 | 68 | 10.0 | 11.0 | 0.00 | 0.00 | 0.00 | 49 | 1019.7 |
| 20260509185519 | 53 | 68 | 8.0 | 11.0 | 0.00 | 0.00 | 0.00 | 50 | 1019.7 |
| 20260509185021 | 53 | 68 | 7.0 | 10.0 | 0.00 | 0.00 | 0.00 | 50 | 1019.8 |
| 20260509184518 | 53 | 68 | 7.0 | 10.0 | 0.00 | 0.00 | 0.00 | 49 | 1019.7 |
| 20260509184019 | 53 | 68 | 7.0 | 10.0 | 0.00 | 0.00 | 0.00 | 49 | 1019.7 |
| 20260509183519 | 53 | 68 | 7.0 | 10.0 | 0.00 | 0.00 | 0.00 | 49 | 1019.8 |
| 20260509183008 | 54 | 68 | 8.0 | 10.0 | 0.00 | 0.00 | 0.00 | 49 | 1019.8 |
| 20260509182518 | 54 | 68 | 8.0 | 11.0 | 0.00 | 0.00 | 0.00 | 48 | 1019.9 |
| 20260509182039 | 54 | 68 | 9.0 | 12.0 | 0.00 | 0.00 | 0.00 | 48 | 1019.8 |
| 20260509181518 | 54 | 68 | 9.0 | 11.0 | 0.00 | 0.00 | 0.00 | 47 | 1019.9 |
| 20260509181039 | 54 | 68 | 9.0 | 11.0 | 0.00 | 0.00 | 0.00 | 48 | 1019.9 |
| 20260509180518 | 54 | 68 | 9.0 | 11.0 | 0.00 | 0.00 | 0.00 | 48 | 1020.0 |
| 20260509180008 | 53 | 68 | 8.0 | 11.0 | 0.00 | 0.00 | 0.00 | 49 | 1020.0 |
| 20260509175621 | 53 | 45 | 7.0 | 9.0 | 0.00 | 0.00 | 0.00 | 50 | 1020.0 |
| 20260509175018 | 52 | 68 | 7.0 | 9.0 | 0.00 | 0.00 | 0.00 | 50 | 1020.0 |
| 20260509174518 | 52 | 45 | 7.0 | 9.0 | 0.00 | 0.00 | 0.00 | 49 | 1020.0 |
| 20260509174019 | 53 | 45 | 7.0 | 9.0 | 0.00 | 0.00 | 0.00 | 48 | 1020.0 |
| 20260509173519 | 53 | 45 | 6.0 | 9.0 | 0.00 | 0.00 | 0.00 | 48 | 1019.9 |
| 20260509173007 | 53 | 45 | 6.0 | 9.0 | 0.00 | 0.00 | 0.00 | 49 | 1019.9 |
| 20260509172519 | 53 | 45 | 7.0 | 10.0 | 0.00 | 0.00 | 0.00 | 49 | 1019.8 |
| 20260509172039 | 53 | 45 | 7.0 | 9.0 | 0.00 | 0.00 | 0.00 | 48 | 1019.9 |
| 20260509171519 | 53 | 45 | 8.0 | 10.0 | 0.00 | 0.00 | 0.00 | 48 | 1019.8 |
| 20260509171019 | 53 | 45 | 8.0 | 10.0 | 0.00 | 0.00 | 0.00 | 48 | 1019.8 |
| 20260509170518 | 53 | 45 | 7.0 | 9.0 | 0.00 | 0.00 | 0.00 | 48 | 1019.8 |
| 20260509170007 | 53 | 68 | 6.0 | 9.0 | 0.00 | 0.00 | 0.00 | 47 | 1019.8 |
| 20260509165518 | 53 | 45 | 7.0 | 9.0 | 0.00 | 0.00 | 0.00 | 47 | 1019.8 |
| 20260509165018 | 53 | 68 | 6.0 | 9.0 | 0.00 | 0.00 | 0.00 | 47 | 1019.8 |
| 20260509164519 | 54 | 68 | 7.0 | 9.0 | 0.00 | 0.00 | 0.00 | 47 | 1019.7 |
| 20260509164018 | 53 | 68 | 6.0 | 9.0 | 0.00 | 0.00 | 0.00 | 47 | 1019.9 |
| 20260509163518 | 53 | 68 | 6.0 | 9.0 | 0.00 | 0.00 | 0.00 | 47 | 1020.0 |
| 20260509163007 | 53 | 68 | 6.0 | 9.0 | 0.00 | 0.00 | 0.00 | 48 | 1019.9 |
| 20260509162519 | 53 | 68 | 6.0 | 9.0 | 0.00 | 0.00 | 0.00 | 48 | 1019.9 |
| 20260509162018 | 54 | 68 | 6.0 | 9.0 | 0.00 | 0.00 | 0.00 | 47 | 1019.9 |
| 20260509161518 | 54 | 45 | 6.0 | 9.0 | 0.00 | 0.00 | 0.00 | 46 | 1019.9 |
| 20260509161019 | 54 | 45 | 6.0 | 9.0 | 0.00 | 0.00 | 0.00 | 46 | 1019.9 |
| 20260509160518 | 53 | 45 | 6.0 | 9.0 | 0.00 | 0.00 | 0.00 | 47 | 1019.9 |
| 20260509160010 | 53 | 68 | 6.0 | 9.0 | 0.00 | 0.00 | 0.00 | 47 | 1020.0 |
| 20260509155518 | 53 | 45 | 6.0 | 8.0 | 0.00 | 0.00 | 0.00 | 48 | 1020.0 |
| 20260509155017 | 53 | 68 | 5.0 | 6.0 | 0.00 | 0.00 | 0.00 | 48 | 1020.0 |
| 20260509154517 | 53 | 68 | 6.0 | 9.0 | 0.00 | 0.00 | 0.00 | 46 | 1020.0 |
| 20260509154017 | 55 | 68 | 6.0 | 7.0 | 0.00 | 0.00 | 0.00 | 44 | 1020.1 |
| 20260509153519 | 56 | 45 | 5.0 | 8.0 | 0.00 | 0.00 | 0.00 | 43 | 1020.2 |
| 20260509153007 | 55 | 45 | 6.0 | 8.0 | 0.00 | 0.00 | 0.00 | 43 | 1020.2 |
| 20260509152517 | 54 | 45 | 6.0 | 9.0 | 0.00 | 0.00 | 0.00 | 45 | 1020.1 |
| 20260509152017 | 54 | 45 | 7.0 | 8.0 | 0.00 | 0.00 | 0.00 | 45 | 1020.1 |
| 20260509151518 | 54 | 68 | 7.0 | 8.0 | 0.00 | 0.00 | 0.00 | 45 | 1020.2 |
| 20260509151017 | 55 | 45 | 6.0 | 8.0 | 0.00 | 0.00 | 0.00 | 44 | 1020.3 |
| 20260509150517 | 55 | 45 | 6.0 | 8.0 | 0.00 | 0.00 | 0.00 | 43 | 1020.2 |
| 20260509150008 | 55 | 45 | 6.0 | 9.0 | 0.00 | 0.00 | 0.00 | 43 | 1020.3 |
| 20260509145517 | 54 | 45 | 6.0 | 7.0 | 0.00 | 0.00 | 0.00 | 44 | 1020.3 |
| 20260509145017 | 54 | 68 | 6.0 | 9.0 | 0.00 | 0.00 | 0.00 | 44 | 1020.4 |
| 20260509144518 | 54 | 68 | 6.0 | 8.0 | 0.00 | 0.00 | 0.00 | 44 | 1020.3 |
| 20260509144038 | 55 | 68 | 7.0 | 9.0 | 0.00 | 0.00 | 0.00 | 43 | 1020.5 |
| 20260509143517 | 55 | 45 | 7.0 | 9.0 | 0.00 | 0.00 | 0.00 | 42 | 1020.5 |
| 20260509143010 | 56 | 68 | 6.0 | 9.0 | 0.00 | 0.00 | 0.00 | 42 | 1020.5 |
| 20260509142517 | 56 | 68 | 7.0 | 9.0 | 0.00 | 0.00 | 0.00 | 42 | 1020.4 |
| 20260509142059 | 56 | 68 | 7.0 | 9.0 | 0.00 | 0.00 | 0.00 | 42 | 1020.4 |
| 20260509141517 | 56 | 68 | 6.0 | 9.0 | 0.00 | 0.00 | 0.00 | 42 | 1020.3 |
| 20260509141018 | 56 | 68 | 6.0 | 8.0 | 0.00 | 0.00 | 0.00 | 41 | 1020.3 |
| 20260509140700 | 57 | 68 | 7.0 | 9.0 | 0.00 | 0.00 | 0.00 | 40 | 1020.3 |
| 20260509140007 | 58 | 68 | 8.0 | 10.0 | 0.00 | 0.00 | 0.00 | 39 | 1020.3 |
| 20260509135520 | 58 | 68 | 8.0 | 10.0 | 0.00 | 0.00 | 0.00 | 39 | 1020.3 |
| 20260509135017 | 58 | 68 | 9.0 | 10.0 | 0.00 | 0.00 | 0.00 | 39 | 1020.3 |
| 20260509134517 | 58 | 68 | 9.0 | 11.0 | 0.00 | 0.00 | 0.00 | 40 | 1020.3 |
| 20260509134017 | 58 | 68 | 9.0 | 10.0 | 0.00 | 0.00 | 0.00 | 39 | 1020.2 |
| 20260509133517 | 58 | 68 | 9.0 | 11.0 | 0.00 | 0.00 | 0.00 | 39 | 1020.2 |
| 20260509133007 | 58 | 68 | 9.0 | 11.0 | 0.00 | 0.00 | 0.00 | 39 | 1020.2 |
| 20260509132520 | 57 | 68 | 9.0 | 10.0 | 0.00 | 0.00 | 0.00 | 40 | 1020.1 |
| 20260509132017 | 57 | 68 | 8.0 | 12.0 | 0.00 | 0.00 | 0.00 | 40 | 1020.0 |
| 20260509131538 | 57 | 68 | 8.0 | 10.0 | 0.00 | 0.00 | 0.00 | 40 | 1020.0 |
| 20260509131017 | 57 | 68 | 8.0 | 10.0 | 0.00 | 0.00 | 0.00 | 40 | 1020.0 |
| 20260509130517 | 57 | 68 | 6.0 | 8.0 | 0.00 | 0.00 | 0.00 | 40 | 1019.9 |
| 20260509130007 | 58 | 68 | 7.0 | 8.0 | 0.00 | 0.00 | 0.00 | 39 | 1019.9 |
| 20260509125517 | 58 | 68 | 7.0 | 8.0 | 0.00 | 0.00 | 0.00 | 39 | 1019.9 |
| 20260509125019 | 59 | 68 | 8.0 | 10.0 | 0.00 | 0.00 | 0.00 | 38 | 1019.8 |
| 20260509124519 | 58 | 68 | 8.0 | 10.0 | 0.00 | 0.00 | 0.00 | 39 | 1019.7 |
| 20260509124021 | 58 | 68 | 8.0 | 10.0 | 0.00 | 0.00 | 0.00 | 39 | 1019.8 |
| 20260509123519 | 57 | 68 | 8.0 | 10.0 | 0.00 | 0.00 | 0.00 | 40 | 1019.7 |
| 20260509123008 | 57 | 68 | 7.0 | 8.0 | 0.00 | 0.00 | 0.00 | 40 | 1019.7 |
| 20260509122521 | 57 | 68 | 6.0 | 9.0 | 0.00 | 0.00 | 0.00 | 40 | 1019.6 |
| 20260509122019 | 57 | 68 | 6.0 | 8.0 | 0.00 | 0.00 | 0.00 | 40 | 1019.6 |
| 20260509121517 | 58 | 68 | 6.0 | 8.0 | 0.00 | 0.00 | 0.00 | 39 | 1019.5 |
| 20260509121019 | 59 | 68 | 7.0 | 8.0 | 0.00 | 0.00 | 0.00 | 38 | 1019.5 |
| 20260509120519 | 59 | 68 | 7.0 | 9.0 | 0.00 | 0.00 | 0.00 | 37 | 1019.6 |
| 20260509120028 | 59 | 68 | 6.0 | 8.0 | 0.00 | 0.00 | 0.00 | 37 | 1019.6 |
| 20260509115519 | 60 | 68 | 7.0 | 9.0 | 0.00 | 0.00 | 0.00 | 35 | 1019.5 |
| 20260509115019 | 61 | 68 | 8.0 | 9.0 | 0.00 | 0.00 | 0.00 | 35 | 1019.4 |
| 20260509114519 | 62 | 68 | 8.0 | 9.0 | 0.00 | 0.00 | 0.00 | 34 | 1019.4 |
| 20260509114019 | 62 | 68 | 7.0 | 8.0 | 0.00 | 0.00 | 0.00 | 33 | 1019.4 |
| 20260509113540 | 63 | 68 | 6.0 | 9.0 | 0.00 | 0.00 | 0.00 | 33 | 1019.6 |
| 20260509113008 | 63 | 90 | 6.0 | 9.0 | 0.00 | 0.00 | 0.00 | 32 | 1019.4 |
| 20260509112519 | 63 | 90 | 6.0 | 9.0 | 0.00 | 0.00 | 0.00 | 32 | 1019.4 |
| 20260509112019 | 63 | 90 | 7.0 | 10.0 | 0.00 | 0.00 | 0.00 | 32 | 1019.3 |
| 20260509111519 | 63 | 90 | 6.0 | 9.0 | 0.00 | 0.00 | 0.00 | 32 | 1019.4 |
| 20260509111019 | 64 | 90 | 6.0 | 9.0 | 0.00 | 0.00 | 0.00 | 32 | 1019.4 |
| 20260509110519 | 65 | 90 | 6.0 | 8.0 | 0.00 | 0.00 | 0.00 | 31 | 1019.4 |
| 20260509110031 | 65 | 90 | 6.0 | 9.0 | 0.00 | 0.00 | 0.00 | 30 | 1019.4 |
| 20260509105519 | 66 | 90 | 6.0 | 8.0 | 0.00 | 0.00 | 0.00 | 30 | 1019.4 |
| 20260509105019 | 66 | 90 | 7.0 | 10.0 | 0.00 | 0.00 | 0.00 | 30 | 1019.3 |
| 20260509104519 | 66 | 90 | 7.0 | 10.0 | 0.00 | 0.00 | 0.00 | 30 | 1019.3 |
| 20260509104019 | 67 | 90 | 8.0 | 11.0 | 0.00 | 0.00 | 0.00 | 29 | 1019.3 |
| 20260509103519 | 67 | 90 | 7.0 | 11.0 | 0.00 | 0.00 | 0.00 | 30 | 1019.3 |
| 20260509103007 | 67 | 113 | 7.0 | 10.0 | 0.00 | 0.00 | 0.00 | 30 | 1019.2 |
| 20260509102519 | 67 | 90 | 6.0 | 10.0 | 0.00 | 0.00 | 0.00 | 29 | 1019.3 |
| 20260509102021 | 67 | 90 | 7.0 | 10.0 | 0.00 | 0.00 | 0.00 | 29 | 1019.3 |
| 20260509101519 | 68 | 113 | 6.0 | 9.0 | 0.00 | 0.00 | 0.00 | 28 | 1019.3 |
| 20260509101019 | 68 | 90 | 6.0 | 9.0 | 0.00 | 0.00 | 0.00 | 28 | 1019.2 |
| 20260509100519 | 68 | 113 | 7.0 | 11.0 | 0.00 | 0.00 | 0.00 | 28 | 1019.1 |
| 20260509100006 | 69 | 113 | 7.0 | 10.0 | 0.00 | 0.00 | 0.00 | 28 | 1019.0 |
| 20260509095539 | 69 | 113 | 6.0 | 10.0 | 0.00 | 0.00 | 0.00 | 28 | 1018.9 |
| 20260509095018 | 69 | 113 | 6.0 | 8.0 | 0.00 | 0.00 | 0.00 | 28 | 1019.0 |
| 20260509094518 | 69 | 113 | 4.0 | 7.0 | 0.00 | 0.00 | 0.00 | 28 | 1019.0 |
| 20260509094018 | 70 | 113 | 4.0 | 7.0 | 0.00 | 0.00 | 0.00 | 28 | 1018.9 |
| 20260509093519 | 70 | 113 | 3.0 | 6.0 | 0.00 | 0.00 | 0.00 | 28 | 1019.0 |
| 20260509093007 | 71 | 113 | 3.0 | 7.0 | 0.00 | 0.00 | 0.00 | 28 | 1018.9 |
| 20260509092519 | 71 | 113 | 3.0 | 7.0 | 0.00 | 0.00 | 0.00 | 27 | 1019.0 |
| 20260509092018 | 71 | 113 | 4.0 | 7.0 | 0.00 | 0.00 | 0.00 | 27 | 1019.0 |
| 20260509091519 | 72 | 113 | 5.0 | 7.0 | 0.00 | 0.00 | 0.00 | 27 | 1018.9 |
| 20260509091039 | 72 | 113 | 4.0 | 8.0 | 0.00 | 0.00 | 0.00 | 27 | 1019.0 |
| 20260509090518 | 72 | 113 | 3.0 | 7.0 | 0.00 | 0.00 | 0.00 | 27 | 1019.0 |
| 20260509090007 | 73 | 113 | 5.0 | 8.0 | 0.00 | 0.00 | 0.00 | 27 | 1018.9 |
| 20260509085519 | 73 | 113 | 5.0 | 9.0 | 0.00 | 0.00 | 0.00 | 26 | 1019.0 |
| 20260509085019 | 73 | 113 | 5.0 | 9.0 | 0.00 | 0.00 | 0.00 | 26 | 1019.0 |
| 20260509084518 | 73 | 113 | 5.0 | 8.0 | 0.00 | 0.00 | 0.00 | 26 | 1018.9 |
| 20260509084040 | 73 | 113 | 4.0 | 9.0 | 0.00 | 0.00 | 0.00 | 26 | 1018.9 |
| 20260509083518 | 74 | 90 | 7.0 | 11.0 | 0.00 | 0.00 | 0.00 | 26 | 1018.9 |
| 20260509083006 | 74 | 113 | 6.0 | 12.0 | 0.00 | 0.00 | 0.00 | 26 | 1018.9 |
| 20260509082518 | 74 | 90 | 6.0 | 9.0 | 0.00 | 0.00 | 0.00 | 26 | 1019.0 |
| 20260509082018 | 74 | 113 | 6.0 | 11.0 | 0.00 | 0.00 | 0.00 | 26 | 1018.9 |
| 20260509081539 | 74 | 135 | 4.0 | 8.0 | 0.00 | 0.00 | 0.00 | 26 | 1018.8 |
| 20260509081019 | 74 | 113 | 5.0 | 10.0 | 0.00 | 0.00 | 0.00 | 26 | 1018.7 |
| 20260509080518 | 74 | 113 | 6.0 | 12.0 | 0.00 | 0.00 | 0.00 | 26 | 1018.7 |
| 20260509080009 | 75 | 135 | 4.0 | 10.0 | 0.00 | 0.00 | 0.00 | 26 | 1018.7 |
| 20260509075518 | 75 | 135 | 5.0 | 10.0 | 0.00 | 0.00 | 0.00 | 26 | 1018.7 |
| 20260509075019 | 75 | 113 | 5.0 | 10.0 | 0.00 | 0.00 | 0.00 | 26 | 1018.7 |
| 20260509074518 | 75 | 90 | 6.0 | 11.0 | 0.00 | 0.00 | 0.00 | 26 | 1018.6 |
| 20260509074018 | 75 | 113 | 7.0 | 11.0 | 0.00 | 0.00 | 0.00 | 27 | 1018.6 |
| 20260509073518 | 75 | 113 | 5.0 | 10.0 | 0.00 | 0.00 | 0.00 | 27 | 1018.5 |
| 20260509073009 | 75 | 113 | 7.0 | 11.0 | 0.00 | 0.00 | 0.00 | 26 | 1018.5 |
| 20260509072519 | 75 | 113 | 3.0 | 9.0 | 0.00 | 0.00 | 0.00 | 27 | 1018.5 |
| 20260509072018 | 75 | 113 | 5.0 | 11.0 | 0.00 | 0.00 | 0.00 | 27 | 1018.4 |
| 20260509071518 | 75 | 113 | 5.0 | 11.0 | 0.00 | 0.00 | 0.00 | 26 | 1018.4 |
| 20260509071018 | 75 | 68 | 8.0 | 12.0 | 0.00 | 0.00 | 0.00 | 24 | 1018.5 |
| 20260509070518 | 75 | 113 | 6.0 | 12.0 | 0.00 | 0.00 | 0.00 | 25 | 1018.4 |
| 20260509070006 | 75 | 113 | 7.0 | 12.0 | 0.00 | 0.00 | 0.00 | 26 | 1018.4 |
| 20260509065539 | 75 | 90 | 6.0 | 12.0 | 0.00 | 0.00 | 0.00 | 26 | 1018.4 |
| 20260509065018 | 75 | 90 | 5.0 | 9.0 | 0.00 | 0.00 | 0.00 | 25 | 1018.4 |
| 20260509064519 | 75 | 90 | 9.0 | 18.0 | 0.00 | 0.00 | 0.00 | 25 | 1018.4 |
| 20260509064018 | 76 | 90 | 5.0 | 12.0 | 0.00 | 0.00 | 0.00 | 25 | 1018.5 |
| 20260509063518 | 75 | 68 | 5.0 | 10.0 | 0.00 | 0.00 | 0.00 | 26 | 1018.4 |
| 20260509063008 | 75 | 68 | 7.0 | 14.0 | 0.00 | 0.00 | 0.00 | 26 | 1018.5 |
| 20260509062519 | 75 | 45 | 6.0 | 12.0 | 0.00 | 0.00 | 0.00 | 27 | 1018.4 |
| 20260509062018 | 75 | 68 | 7.0 | 15.0 | 0.00 | 0.00 | 0.00 | 26 | 1018.4 |
| 20260509061539 | 75 | 68 | 10.0 | 18.0 | 0.00 | 0.00 | 0.00 | 26 | 1018.5 |
| 20260509061018 | 75 | 68 | 10.0 | 15.0 | 0.00 | 0.00 | 0.00 | 26 | 1018.4 |
| 20260509060518 | 75 | 90 | 7.0 | 10.0 | 0.00 | 0.00 | 0.00 | 26 | 1018.3 |
| 20260509060007 | 75 | 90 | 8.0 | 14.0 | 0.00 | 0.00 | 0.00 | 26 | 1018.3 |
| 20260509055518 | 75 | 68 | 7.0 | 15.0 | 0.00 | 0.00 | 0.00 | 26 | 1018.3 |
| 20260509055039 | 75 | 90 | 6.0 | 11.0 | 0.00 | 0.00 | 0.00 | 27 | 1018.4 |
| 20260509054518 | 74 | 68 | 11.0 | 17.0 | 0.00 | 0.00 | 0.00 | 27 | 1018.4 |
| 20260509054018 | 75 | 68 | 8.0 | 15.0 | 0.00 | 0.00 | 0.00 | 26 | 1018.4 |
| 20260509053539 | 75 | 45 | 6.0 | 12.0 | 0.00 | 0.00 | 0.00 | 27 | 1018.5 |
| 20260509053006 | 74 | 23 | 4.0 | 9.0 | 0.00 | 0.00 | 0.00 | 27 | 1018.5 |
| 20260509052518 | 74 | 45 | 9.0 | 14.0 | 0.00 | 0.00 | 0.00 | 27 | 1018.5 |
| 20260509052018 | 74 | 68 | 10.0 | 17.0 | 0.00 | 0.00 | 0.00 | 28 | 1018.6 |
| 20260509051518 | 74 | 68 | 7.0 | 14.0 | 0.00 | 0.00 | 0.00 | 28 | 1018.7 |
| 20260509051018 | 74 | 45 | 10.0 | 16.0 | 0.00 | 0.00 | 0.00 | 28 | 1018.9 |
| 20260509050518 | 74 | 68 | 10.0 | 14.0 | 0.00 | 0.00 | 0.00 | 28 | 1018.9 |
| 20260509050006 | 74 | 68 | 10.0 | 15.0 | 0.00 | 0.00 | 0.00 | 28 | 1018.9 |
| 20260509045518 | 74 | 45 | 11.0 | 16.0 | 0.00 | 0.00 | 0.00 | 28 | 1018.9 |
| 20260509045039 | 74 | 45 | 11.0 | 17.0 | 0.00 | 0.00 | 0.00 | 29 | 1018.9 |
| 20260509044518 | 74 | 45 | 12.0 | 17.0 | 0.00 | 0.00 | 0.00 | 29 | 1019.0 |
| 20260509044018 | 74 | 45 | 11.0 | 16.0 | 0.00 | 0.00 | 0.00 | 28 | 1019.1 |
| 20260509043518 | 73 | 45 | 12.0 | 19.0 | 0.00 | 0.00 | 0.00 | 29 | 1019.1 |
| 20260509043008 | 73 | 68 | 13.0 | 18.0 | 0.00 | 0.00 | 0.00 | 29 | 1019.2 |
| 20260509042518 | 73 | 45 | 13.0 | 19.0 | 0.00 | 0.00 | 0.00 | 29 | 1019.2 |
| 20260509042018 | 73 | 45 | 12.0 | 19.0 | 0.00 | 0.00 | 0.00 | 29 | 1019.5 |
| 20260509041519 | 73 | 45 | 14.0 | 20.0 | 0.00 | 0.00 | 0.00 | 29 | 1019.5 |
| 20260509041039 | 73 | 45 | 14.0 | 21.0 | 0.00 | 0.00 | 0.00 | 29 | 1019.7 |
| 20260509040518 | 73 | 45 | 15.0 | 21.0 | 0.00 | 0.00 | 0.00 | 29 | 1019.8 |
| 20260509040008 | 73 | 45 | 14.0 | 22.0 | 0.00 | 0.00 | 0.00 | 29 | 1019.8 |
| 20260509035523 | 72 | 45 | 16.0 | 21.0 | 0.00 | 0.00 | 0.00 | 30 | 1019.9 |
| 20260509035019 | 72 | 45 | 15.0 | 21.0 | 0.00 | 0.00 | 0.00 | 29 | 1020.1 |
| 20260509034518 | 72 | 45 | 17.0 | 22.0 | 0.00 | 0.00 | 0.00 | 30 | 1020.4 |
| 20260509034018 | 71 | 45 | 15.0 | 22.0 | 0.00 | 0.00 | 0.00 | 31 | 1020.5 |